| time (UTC) | temp C | wind direction | speed KPH | gust KPH | rain 1hr cm | rain 24hr cm | rain mn cm | humidity % | barometer mb |
| 20260901153855 | 30 | 170 | 4.8 | 8.0 | 0.00 | 0.00 | 0.00 | 77 | 1012.3 |
| 20260901153354 | 30 | 108 | 1.6 | 4.8 | 0.00 | 0.00 | 0.00 | 80 | 1012.1 |
| 20260901152854 | 30 | 110 | 1.6 | 3.2 | 0.00 | 0.00 | 0.00 | 78 | 1012.1 |
| 20260901152349 | 30 | 119 | 3.2 | 8.0 | 0.00 | 0.00 | 0.00 | 78 | 1012.3 |
| 20260901151843 | 30 | 110 | 0.0 | 1.6 | 0.00 | 0.00 | 0.00 | 79 | 1012.2 |
| 20260901151338 | 30 | 104 | 1.6 | 1.6 | 0.00 | 0.00 | 0.00 | 79 | 1011.9 |
| 20260901150837 | 29 | 112 | 1.6 | 4.8 | 0.00 | 0.00 | 0.00 | 80 | 1012.1 |
| 20260901150335 | 29 | 141 | 4.8 | 4.8 | 0.00 | 0.00 | 0.00 | 79 | 1012.1 |
| 20260901145833 | 29 | 105 | 1.6 | 1.6 | 0.00 | 0.00 | 0.00 | 80 | 1012.2 |
| 20260901145327 | 28 | 107 | 1.6 | 4.8 | 0.00 | 0.00 | 0.00 | 80 | 1011.9 |
| 20260901144822 | 28 | 111 | 1.6 | 4.8 | 0.00 | 0.00 | 0.00 | 80 | 1012.3 |
| 20260901144318 | 28 | 105 | 1.6 | 4.8 | 0.00 | 0.00 | 0.00 | 82 | 1012.1 |
| 20260901143814 | 28 | 106 | 1.6 | 3.2 | 0.00 | 0.00 | 0.00 | 81 | 1012.1 |
| 20260901143310 | 28 | 104 | 3.2 | 8.0 | 0.00 | 0.00 | 0.00 | 81 | 1012.1 |
| 20260901142806 | 28 | 101 | 4.8 | 8.0 | 0.00 | 0.00 | 0.00 | 82 | 1012.1 |
| 20260901142306 | 28 | 119 | 1.6 | 4.8 | 0.00 | 0.00 | 0.00 | 82 | 1012.2 |
| 20260901141800 | 27 | 120 | 1.6 | 4.8 | 0.00 | 0.00 | 0.00 | 82 | 1012.2 |
| 20260901141255 | 27 | 110 | 3.2 | 4.8 | 0.00 | 0.00 | 0.00 | 83 | 1012.1 |
| 20260901140754 | 27 | 103 | 4.8 | 4.8 | 0.00 | 0.00 | 0.00 | 83 | 1011.9 |
| 20260901140252 | 27 | 97 | 3.2 | 3.2 | 0.00 | 0.00 | 0.00 | 84 | 1011.9 |
| 20260901135748 | 27 | 105 | 3.2 | 8.0 | 0.00 | 0.00 | 0.00 | 85 | 1011.6 |
| 20260901135247 | 26 | 101 | 4.8 | 4.8 | 0.00 | 0.00 | 0.00 | 86 | 1012.1 |
| 20260901134744 | 26 | 107 | 0.0 | 1.6 | 0.00 | 0.00 | 0.00 | 87 | 1012.2 |
| 20260901134243 | 26 | 106 | 3.2 | 9.7 | 0.00 | 0.00 | 0.00 | 88 | 1012.1 |
| 20260901133742 | 26 | 108 | 1.6 | 3.2 | 0.00 | 0.00 | 0.00 | 89 | 1012.2 |
| 20260901133237 | 26 | 108 | 3.2 | 3.2 | 0.00 | 0.00 | 0.00 | 88 | 1012.2 |
| 20260901132735 | 25 | 114 | 1.6 | 4.8 | 0.00 | 0.00 | 0.00 | 88 | 1012.3 |
| 20260901132230 | 25 | 117 | 3.2 | 3.2 | 0.00 | 0.00 | 0.00 | 89 | 1012.1 |
| 20260901131725 | 25 | 112 | 0.0 | 1.6 | 0.00 | 0.00 | 0.00 | 90 | 1012.2 |
| 20260901131224 | 25 | 109 | 0.0 | 3.2 | 0.00 | 0.00 | 0.00 | 90 | 1012.2 |
| 20260901130720 | 25 | 109 | 0.0 | 1.6 | 0.00 | 0.00 | 0.00 | 91 | 1012.3 |
| 20260901130219 | 25 | 119 | 1.6 | 3.2 | 0.00 | 0.00 | 0.00 | 92 | 1012.3 |
| 20260901125717 | 25 | 118 | 0.0 | 1.6 | 0.00 | 0.00 | 0.00 | 92 | 1012.4 |
| 20260901125212 | 25 | 119 | 1.6 | 3.2 | 0.00 | 0.00 | 0.00 | 92 | 1012.4 |
| 20260901124706 | 25 | 118 | 1.6 | 1.6 | 0.00 | 0.00 | 0.00 | 93 | 1012.4 |
| 20260901124201 | 25 | 111 | 1.6 | 3.2 | 0.00 | 0.00 | 0.00 | 93 | 1012.6 |
| 20260901123655 | 24 | 115 | 1.6 | 3.2 | 0.00 | 0.00 | 0.00 | 93 | 1012.6 |
| 20260901123155 | 24 | 118 | 0.0 | 1.6 | 0.00 | 0.00 | 0.00 | 93 | 1012.4 |
| 20260901122654 | 24 | 118 | 1.6 | 1.6 | 0.00 | 0.00 | 0.00 | 93 | 1012.2 |
| 20260901122149 | 24 | 117 | 0.0 | 1.6 | 0.00 | 0.00 | 0.00 | 94 | 1012.2 |
| 20260901121643 | 24 | 121 | 1.6 | 3.2 | 0.00 | 0.00 | 0.00 | 94 | 1012.2 |
| 20260901121139 | 24 | 120 | 1.6 | 1.6 | 0.00 | 0.00 | 0.00 | 94 | 1012.2 |
| 20260901120638 | 24 | 119 | 0.0 | 1.6 | 0.00 | 0.00 | 0.00 | 94 | 1011.9 |
| 20260901120133 | 24 | 118 | 1.6 | 1.6 | 0.00 | 0.00 | 0.00 | 95 | 1011.6 |
| 20260901115629 | 23 | 120 | 0.0 | 0.0 | 0.00 | 0.00 | 0.00 | 95 | 1011.7 |
| 20260901115125 | 23 | 119 | 0.0 | 0.0 | 0.00 | 0.00 | 0.00 | 95 | 1011.7 |
| 20260901114622 | 23 | 119 | 0.0 | 1.6 | 0.00 | 0.00 | 0.00 | 95 | 1011.8 |
| 20260901114120 | 23 | 120 | 1.6 | 3.2 | 0.00 | 0.00 | 0.00 | 95 | 1011.6 |
| 20260901113619 | 23 | 121 | 0.0 | 1.6 | 0.00 | 0.00 | 0.00 | 95 | 1011.5 |
| 20260901113114 | 23 | 120 | 0.0 | 0.0 | 0.00 | 0.00 | 0.00 | 95 | 1011.5 |
| 20260901112609 | 23 | 120 | 0.0 | 0.0 | 0.00 | 0.00 | 0.00 | 95 | 1011.7 |
| 20260901112104 | 23 | 119 | 0.0 | 0.0 | 0.00 | 0.00 | 0.00 | 95 | 1011.6 |
| 20260901111603 | 23 | 121 | 0.0 | 0.0 | 0.00 | 0.00 | 0.00 | 95 | 1011.4 |
| 20260901111101 | 23 | 118 | 0.0 | 0.0 | 0.00 | 0.00 | 0.00 | 95 | 1011.4 |
| 20260901110557 | 23 | 123 | 0.0 | 0.0 | 0.00 | 0.00 | 0.00 | 95 | 1011.3 |
| 20260901110052 | 23 | 119 | 0.0 | 0.0 | 0.00 | 0.00 | 0.00 | 95 | 1011.1 |
| 20260901105549 | 23 | 120 | 0.0 | 0.0 | 0.00 | 0.00 | 0.00 | 95 | 1011.0 |
| 20260901105048 | 23 | 119 | 0.0 | 0.0 | 0.00 | 0.00 | 0.00 | 96 | 1011.2 |
| 20260901104544 | 23 | 121 | 0.0 | 0.0 | 0.00 | 0.00 | 0.00 | 95 | 1011.3 |
| 20260901104040 | 23 | 119 | 0.0 | 0.0 | 0.00 | 0.00 | 0.00 | 95 | 1011.3 |
| 20260901103534 | 23 | 120 | 0.0 | 0.0 | 0.00 | 0.00 | 0.00 | 95 | 1011.2 |
| 20260901103030 | 23 | 122 | 0.0 | 0.0 | 0.00 | 0.00 | 0.00 | 95 | 1011.2 |
| 20260901102529 | 23 | 120 | 0.0 | 1.6 | 0.00 | 0.00 | 0.00 | 95 | 1011.3 |
| 20260901102024 | 24 | 119 | 0.0 | 0.0 | 0.00 | 0.00 | 0.00 | 94 | 1010.9 |
| 20260901101520 | 24 | 120 | 0.0 | 0.0 | 0.00 | 0.00 | 0.00 | 93 | 1011.0 |
| 20260901101019 | 24 | 121 | 0.0 | 0.0 | 0.00 | 0.00 | 0.00 | 93 | 1011.3 |
| 20260901100514 | 24 | 121 | 0.0 | 1.6 | 0.00 | 0.00 | 0.00 | 93 | 1011.1 |
| 20260901100014 | 24 | 121 | 1.6 | 1.6 | 0.00 | 0.00 | 0.00 | 93 | 1011.0 |
| 20260901095512 | 24 | 120 | 0.0 | 1.6 | 0.00 | 0.00 | 0.00 | 93 | 1011.0 |
| 20260901095010 | 24 | 122 | 0.0 | 1.6 | 0.00 | 0.00 | 0.00 | 93 | 1011.2 |
| 20260901094505 | 24 | 122 | 0.0 | 1.6 | 0.00 | 0.00 | 0.00 | 93 | 1011.0 |
| 20260901094004 | 24 | 120 | 1.6 | 1.6 | 0.00 | 0.00 | 0.00 | 92 | 1011.1 |
| 20260901093504 | 24 | 121 | 0.0 | 1.6 | 0.00 | 0.00 | 0.00 | 92 | 1011.0 |
| 20260901092959 | 24 | 121 | 0.0 | 1.6 | 0.00 | 0.00 | 0.00 | 92 | 1010.9 |
| 20260901092454 | 24 | 122 | 0.0 | 1.6 | 0.00 | 0.00 | 0.00 | 92 | 1010.8 |
| 20260901091945 | 25 | 120 | 0.0 | 3.2 | 0.00 | 0.00 | 0.00 | 92 | 1011.0 |
| 20260901091440 | 25 | 119 | 0.0 | 3.2 | 0.00 | 0.00 | 0.00 | 91 | 1010.9 |
| 20260901090935 | 25 | 123 | 1.6 | 3.2 | 0.00 | 0.00 | 0.00 | 91 | 1011.1 |
| 20260901090434 | 25 | 120 | 0.0 | 1.6 | 0.00 | 0.00 | 0.00 | 91 | 1011.0 |
| 20260901085930 | 25 | 120 | 0.0 | 3.2 | 0.00 | 0.00 | 0.00 | 91 | 1010.8 |
| 20260901085426 | 25 | 119 | 0.0 | 1.6 | 0.00 | 0.00 | 0.00 | 91 | 1010.8 |
| 20260901084922 | 25 | 121 | 0.0 | 1.6 | 0.00 | 0.00 | 0.00 | 91 | 1011.0 |
| 20260901084418 | 25 | 123 | 0.0 | 1.6 | 0.00 | 0.00 | 0.00 | 90 | 1010.8 |
| 20260901083913 | 25 | 125 | 1.6 | 3.2 | 0.00 | 0.00 | 0.00 | 90 | 1010.7 |
| 20260901083408 | 25 | 129 | 1.6 | 1.6 | 0.00 | 0.00 | 0.00 | 90 | 1010.8 |
| 20260901082906 | 25 | 110 | 0.0 | 1.6 | 0.00 | 0.00 | 0.00 | 90 | 1010.9 |
| 20260901082401 | 25 | 119 | 0.0 | 4.8 | 0.00 | 0.00 | 0.00 | 90 | 1010.6 |
| 20260901081856 | 25 | 112 | 1.6 | 4.8 | 0.00 | 0.00 | 0.00 | 89 | 1010.7 |
| 20260901081352 | 25 | 109 | 3.2 | 3.2 | 0.00 | 0.00 | 0.00 | 89 | 1011.0 |
| 20260901080851 | 25 | 106 | 1.6 | 4.8 | 0.00 | 0.00 | 0.00 | 89 | 1010.7 |
| 20260901080346 | 25 | 118 | 1.6 | 3.2 | 0.00 | 0.00 | 0.00 | 89 | 1010.9 |
| 20260901075840 | 25 | 103 | 1.6 | 8.0 | 0.00 | 0.00 | 0.00 | 89 | 1010.7 |
| 20260901075336 | 25 | 111 | 3.2 | 3.2 | 0.00 | 0.00 | 0.00 | 89 | 1010.7 |
| 20260901074830 | 25 | 122 | 1.6 | 4.8 | 0.00 | 0.00 | 0.00 | 89 | 1010.7 |
| 20260901074325 | 25 | 107 | 3.2 | 4.8 | 0.00 | 0.00 | 0.00 | 89 | 1010.7 |
| 20260901073821 | 25 | 118 | 3.2 | 3.2 | 0.00 | 0.00 | 0.00 | 88 | 1010.8 |
| 20260901073316 | 25 | 123 | 3.2 | 4.8 | 0.00 | 0.00 | 0.00 | 88 | 1010.8 |
| 20260901072812 | 25 | 115 | 1.6 | 4.8 | 0.00 | 0.00 | 0.00 | 88 | 1010.8 |
| 20260901072311 | 25 | 109 | 1.6 | 3.2 | 0.00 | 0.00 | 0.00 | 88 | 1010.8 |
| 20260901071807 | 25 | 107 | 1.6 | 3.2 | 0.00 | 0.00 | 0.00 | 88 | 1010.6 |
| 20260901071305 | 25 | 123 | 3.2 | 4.8 | 0.00 | 0.00 | 0.00 | 87 | 1010.6 |
| 20260901070804 | 25 | 116 | 1.6 | 8.0 | 0.00 | 0.00 | 0.00 | 87 | 1010.6 |
| 20260901070300 | 25 | 117 | 1.6 | 3.2 | 0.00 | 0.00 | 0.00 | 88 | 1010.8 |
| 20260901065759 | 25 | 118 | 1.6 | 4.8 | 0.00 | 0.00 | 0.00 | 88 | 1010.7 |
| 20260901065254 | 25 | 110 | 0.0 | 1.6 | 0.00 | 0.00 | 0.00 | 88 | 1010.6 |
| 20260901064750 | 25 | 136 | 1.6 | 3.2 | 0.00 | 0.00 | 0.00 | 89 | 1010.5 |
| 20260901064246 | 25 | 118 | 1.6 | 4.8 | 0.00 | 0.00 | 0.00 | 89 | 1010.7 |
| 20260901063744 | 25 | 111 | 0.0 | 3.2 | 0.00 | 0.00 | 0.00 | 89 | 1010.7 |
| 20260901063239 | 25 | 132 | 1.6 | 3.2 | 0.00 | 0.00 | 0.00 | 89 | 1010.8 |
| 20260901062735 | 25 | 111 | 0.0 | 1.6 | 0.00 | 0.00 | 0.00 | 89 | 1010.5 |
| 20260901062231 | 25 | 86 | 0.0 | 1.6 | 0.00 | 0.00 | 0.00 | 89 | 1010.4 |
| 20260901061727 | 25 | 115 | 1.6 | 1.6 | 0.00 | 0.00 | 0.00 | 89 | 1010.5 |
| 20260901061226 | 25 | 110 | 0.0 | 3.2 | 0.00 | 0.00 | 0.00 | 89 | 1010.5 |
| 20260901060722 | 25 | 111 | 0.0 | 1.6 | 0.00 | 0.00 | 0.00 | 89 | 1010.5 |
| 20260901060217 | 25 | 135 | 3.2 | 3.2 | 0.00 | 0.00 | 0.00 | 89 | 1010.4 |
| 20260901055712 | 25 | 113 | 3.2 | 3.2 | 0.00 | 0.00 | 0.00 | 89 | 1010.6 |
| 20260901055209 | 25 | 117 | 1.6 | 3.2 | 0.00 | 0.00 | 0.00 | 89 | 1010.6 |
| 20260901054706 | 25 | 144 | 3.2 | 4.8 | 0.00 | 0.00 | 0.00 | 89 | 1010.4 |
| 20260901054202 | 25 | 111 | 1.6 | 3.2 | 0.00 | 0.00 | 0.00 | 89 | 1010.7 |
| 20260901053658 | 25 | 112 | 1.6 | 1.6 | 0.00 | 0.00 | 0.00 | 89 | 1010.7 |
| 20260901053153 | 25 | 112 | 0.0 | 3.2 | 0.00 | 0.00 | 0.00 | 89 | 1010.6 |
| 20260901052648 | 25 | 110 | 1.6 | 1.6 | 0.00 | 0.00 | 0.00 | 89 | 1010.5 |
| 20260901052143 | 25 | 112 | 0.0 | 4.8 | 0.00 | 0.00 | 0.00 | 89 | 1010.7 |
| 20260901051642 | 26 | 108 | 0.0 | 3.2 | 0.00 | 0.00 | 0.00 | 89 | 1010.7 |
| 20260901051142 | 26 | 112 | 1.6 | 1.6 | 0.00 | 0.00 | 0.00 | 88 | 1010.6 |
| 20260901050637 | 26 | 118 | 3.2 | 3.2 | 0.00 | 0.00 | 0.00 | 88 | 1010.7 |
| 20260901050132 | 26 | 108 | 0.0 | 1.6 | 0.00 | 0.00 | 0.00 | 88 | 1010.6 |
| 20260901045627 | 26 | 109 | 1.6 | 4.8 | 0.00 | 0.76 | 0.76 | 88 | 1010.6 |
| 20260901045122 | 26 | 125 | 1.6 | 4.8 | 0.00 | 0.76 | 0.76 | 88 | 1010.6 |
| 20260901044618 | 26 | 121 | 1.6 | 3.2 | 0.00 | 0.76 | 0.76 | 88 | 1010.3 |
| 20260901044113 | 26 | 120 | 3.2 | 3.2 | 0.00 | 0.76 | 0.76 | 88 | 1010.6 |
| 20260901043608 | 26 | 128 | 1.6 | 3.2 | 0.00 | 0.76 | 0.76 | 88 | 1010.5 |
| 20260901043059 | 26 | 129 | 4.8 | 4.8 | 0.00 | 0.76 | 0.76 | 88 | 1010.6 |
| 20260901042558 | 26 | 126 | 1.6 | 3.2 | 0.00 | 0.76 | 0.76 | 88 | 1010.6 |
| 20260901042053 | 26 | 130 | 3.2 | 4.8 | 0.00 | 0.76 | 0.76 | 88 | 1010.8 |
| 20260901041548 | 26 | 109 | 1.6 | 3.2 | 0.00 | 0.76 | 0.76 | 88 | 1010.7 |
| 20260901041042 | 26 | 125 | 3.2 | 3.2 | 0.00 | 0.76 | 0.76 | 88 | 1010.6 |
| 20260901040542 | 26 | 118 | 0.0 | 3.2 | 0.00 | 0.76 | 0.76 | 88 | 1010.8 |
| 20260901040037 | 26 | 117 | 1.6 | 3.2 | 0.00 | 0.76 | 0.76 | 88 | 1010.6 |
| 20260901035535 | 26 | 112 | 1.6 | 1.6 | 0.00 | 0.76 | 0.76 | 87 | 1010.7 |
| 20260901035033 | 26 | 127 | 3.2 | 3.2 | 0.00 | 0.76 | 0.76 | 87 | 1010.8 |
| 20260901034528 | 26 | 112 | 0.0 | 4.8 | 0.00 | 0.76 | 0.76 | 87 | 1010.7 |
| 20260901034023 | 26 | 126 | 4.8 | 4.8 | 0.00 | 0.76 | 0.76 | 87 | 1011.0 |
| 20260901033522 | 26 | 115 | 0.0 | 1.6 | 0.00 | 0.76 | 0.76 | 87 | 1010.9 |
| 20260901033021 | 27 | 120 | 1.6 | 3.2 | 0.00 | 0.76 | 0.76 | 86 | 1010.8 |
| 20260901032515 | 26 | 128 | 1.6 | 4.8 | 0.00 | 0.76 | 0.76 | 87 | 1010.8 |
| 20260901032016 | 27 | 113 | 0.0 | 3.2 | 0.00 | 0.76 | 0.76 | 86 | 1010.8 |
| 20260901031511 | 26 | 124 | 1.6 | 3.2 | 0.00 | 0.76 | 0.76 | 87 | 1010.9 |
| 20260901031006 | 26 | 120 | 1.6 | 1.6 | 0.00 | 0.76 | 0.76 | 87 | 1010.9 |
| 20260901030456 | 26 | 126 | 1.6 | 3.2 | 0.00 | 0.76 | 0.76 | 88 | 1010.6 |
| 20260901025954 | 26 | 116 | 0.0 | 1.6 | 0.00 | 0.76 | 0.76 | 89 | 1010.7 |
| 20260901025449 | 26 | 118 | 1.6 | 1.6 | 0.00 | 0.76 | 0.76 | 89 | 1010.8 |
| 20260901024948 | 26 | 119 | 0.0 | 1.6 | 0.00 | 0.76 | 0.76 | 88 | 1011.0 |
| 20260901024444 | 26 | 125 | 1.6 | 3.2 | 0.00 | 0.76 | 0.76 | 88 | 1010.8 |
| 20260901023943 | 26 | 132 | 3.2 | 3.2 | 0.00 | 0.76 | 0.76 | 88 | 1010.7 |
| 20260901023437 | 26 | 120 | 1.6 | 1.6 | 0.00 | 0.76 | 0.76 | 91 | 1010.8 |
| 20260901022932 | 26 | 117 | 0.0 | 0.0 | 0.00 | 0.76 | 0.76 | 91 | 1011.2 |
| 20260901022428 | 26 | 118 | 1.6 | 1.6 | 0.00 | 0.76 | 0.76 | 91 | 1011.2 |
| 20260901021923 | 26 | 117 | 0.0 | 1.6 | 0.00 | 0.76 | 0.76 | 89 | 1011.2 |
| 20260901021419 | 25 | 140 | 3.2 | 3.2 | 0.00 | 0.76 | 0.76 | 92 | 1011.1 |
| 20260901020914 | 25 | 117 | 0.0 | 1.6 | 0.00 | 0.76 | 0.76 | 94 | 1011.1 |
| 20260901020409 | 25 | 115 | 0.0 | 1.6 | 0.00 | 0.76 | 0.76 | 93 | 1010.9 |
| 20260901015908 | 25 | 116 | 0.0 | 1.6 | 0.00 | 0.76 | 0.76 | 92 | 1010.9 |
| 20260901015404 | 26 | 115 | 1.6 | 1.6 | 0.00 | 0.76 | 0.76 | 90 | 1010.8 |
| 20260901014903 | 26 | 138 | 1.6 | 3.2 | 0.00 | 0.76 | 0.76 | 88 | 1010.8 |
| 20260901014359 | 25 | 121 | 1.6 | 3.2 | 0.00 | 0.76 | 0.76 | 91 | 1010.6 |
| 20260901013855 | 25 | 117 | 0.0 | 0.0 | 0.00 | 0.76 | 0.76 | 92 | 1010.7 |
| 20260901013345 | 25 | 117 | 0.0 | 0.0 | 0.00 | 0.76 | 0.76 | 92 | 1010.7 |
| 20260901012841 | 26 | 116 | 0.0 | 1.6 | 0.00 | 0.76 | 0.76 | 91 | 1010.6 |
| 20260901012335 | 26 | 115 | 1.6 | 1.6 | 0.00 | 0.76 | 0.76 | 89 | 1010.6 |
| 20260901011831 | 26 | 117 | 0.0 | 1.6 | 0.00 | 0.76 | 0.76 | 87 | 1010.5 |
| 20260901011326 | 27 | 127 | 1.6 | 3.2 | 0.00 | 0.76 | 0.76 | 85 | 1010.5 |
| 20260901010819 | 26 | 126 | 1.6 | 1.6 | 0.00 | 0.76 | 0.76 | 85 | 1010.4 |
| 20260901010314 | 26 | 125 | 1.6 | 1.6 | 0.00 | 0.76 | 0.76 | 87 | 1010.4 |
| 20260901005813 | 26 | 116 | 1.6 | 1.6 | 0.00 | 0.76 | 0.76 | 88 | 1010.6 |
| 20260901005309 | 26 | 117 | 0.0 | 0.0 | 0.00 | 0.76 | 0.76 | 86 | 1010.7 |
| 20260901004809 | 27 | 124 | 0.0 | 1.6 | 0.00 | 0.76 | 0.76 | 85 | 1010.8 |
| 20260901004303 | 26 | 123 | 1.6 | 1.6 | 0.00 | 0.76 | 0.76 | 85 | 1010.6 |
| 20260901003802 | 26 | 118 | 1.6 | 1.6 | 0.00 | 0.76 | 0.76 | 86 | 1010.5 |
| 20260901003257 | 26 | 122 | 0.0 | 3.2 | 0.00 | 0.76 | 0.76 | 86 | 1010.9 |
| 20260901002751 | 26 | 120 | 0.0 | 1.6 | 0.00 | 0.76 | 0.76 | 87 | 1010.5 |
| 20260901002246 | 27 | 125 | 1.6 | 3.2 | 0.00 | 0.76 | 0.76 | 85 | 1010.5 |
| 20260901001741 | 27 | 116 | 1.6 | 3.2 | 0.00 | 0.76 | 0.76 | 85 | 1010.4 |
| 20260901001236 | 26 | 119 | 3.2 | 8.0 | 0.00 | 0.76 | 0.76 | 89 | 1010.8 |
| 20260901000726 | 25 | 117 | 3.2 | 4.8 | 0.00 | 0.76 | 0.76 | 95 | 1010.4 |
| 20260901000221 | 25 | 121 | 0.0 | 0.0 | 0.00 | 0.76 | 0.76 | 97 | 1010.5 |
| 20260831235720 | 25 | 119 | 0.0 | 0.0 | 0.00 | 0.76 | 0.76 | 97 | 1010.2 |
| 20260831235216 | 25 | 122 | 0.0 | 0.0 | 0.00 | 0.76 | 0.76 | 97 | 1010.1 |
| 20260831234715 | 25 | 119 | 0.0 | 1.6 | 0.00 | 0.76 | 0.76 | 96 | 1009.9 |
| 20260831234210 | 25 | 121 | 1.6 | 3.2 | 0.00 | 0.76 | 0.76 | 96 | 1009.3 |
| 20260831233705 | 25 | 122 | 0.0 | 1.6 | 0.00 | 0.76 | 0.76 | 96 | 1008.8 |
| 20260831233201 | 25 | 114 | 3.2 | 3.2 | 0.00 | 0.76 | 0.76 | 98 | 1009.3 |
| 20260831232655 | 25 | 121 | 0.0 | 1.6 | 0.00 | 0.76 | 0.76 | 98 | 1010.5 |
| 20260831232152 | 25 | 127 | 0.0 | 0.0 | 0.00 | 0.76 | 0.76 | 98 | 1010.8 |
| 20260831231648 | 25 | 131 | 1.6 | 1.6 | 0.00 | 0.76 | 0.76 | 98 | 1010.8 |
| 20260831231143 | 25 | 83 | 0.0 | 0.0 | 0.00 | 0.76 | 0.76 | 98 | 1011.0 |
| 20260831230638 | 26 | 89 | 0.0 | 1.6 | 0.00 | 0.76 | 0.76 | 98 | 1010.6 |
| 20260831230133 | 26 | 87 | 0.0 | 1.6 | 0.00 | 0.76 | 0.76 | 97 | 1010.4 |
| 20260831225628 | 26 | 89 | 0.0 | 0.0 | 0.00 | 0.76 | 0.76 | 98 | 1010.3 |
| 20260831225123 | 26 | 93 | 0.0 | 0.0 | 0.00 | 0.76 | 0.76 | 97 | 1010.1 |
| 20260831224618 | 26 | 87 | 0.0 | 0.0 | 0.00 | 0.76 | 0.76 | 97 | 1010.1 |
| 20260831224113 | 26 | 97 | 0.0 | 0.0 | 0.00 | 0.76 | 0.76 | 96 | 1010.3 |
| 20260831223609 | 26 | 92 | 0.0 | 0.0 | 0.00 | 0.76 | 0.76 | 95 | 1010.5 |
| 20260831223105 | 26 | 94 | 0.0 | 0.0 | 0.13 | 0.76 | 0.76 | 95 | 1010.3 |
| 20260831222600 | 26 | 87 | 0.0 | 1.6 | 1.68 | 0.76 | 0.76 | 93 | 1010.2 |
| 20260831222100 | 28 | 70 | 1.6 | 1.6 | 1.50 | 0.71 | 0.71 | 88 | 1010.2 |
| 20260831221556 | 28 | 132 | 0.0 | 0.0 | 0.00 | 0.46 | 0.46 | 79 | 1010.4 |
| 20260831221051 | 28 | 111 | 0.0 | 0.0 | 0.00 | 0.46 | 0.46 | 80 | 1010.5 |
| 20260831220550 | 29 | 92 | 0.0 | 0.0 | 0.00 | 0.46 | 0.46 | 79 | 1010.2 |
| 20260831220046 | 30 | 98 | 0.0 | 0.0 | 0.00 | 0.46 | 0.46 | 77 | 1010.2 |
| 20260831215542 | 30 | 114 | 0.0 | 1.6 | 0.00 | 0.46 | 0.46 | 75 | 1009.9 |
| 20260831215037 | 30 | 158 | 3.2 | 3.2 | 0.00 | 0.46 | 0.46 | 72 | 1010.1 |
| 20260831214535 | 30 | 135 | 1.6 | 3.2 | 0.00 | 0.46 | 0.46 | 71 | 1010.0 |
| 20260831214031 | 30 | 210 | 4.8 | 9.7 | 0.00 | 0.46 | 0.46 | 71 | 1009.5 |
| 20260831213527 | 29 | 99 | 1.6 | 9.7 | 0.00 | 0.46 | 0.46 | 73 | 1009.7 |
| 20260831213022 | 29 | 114 | 1.6 | 3.2 | 0.00 | 0.46 | 0.46 | 76 | 1009.8 |
| 20260831212518 | 29 | 121 | 0.0 | 3.2 | 0.18 | 0.46 | 0.46 | 76 | 1009.7 |
| 20260831212013 | 30 | 203 | 4.8 | 8.0 | 0.18 | 0.46 | 0.46 | 73 | 1009.5 |
| 20260831211508 | 30 | 200 | 4.8 | 9.7 | 0.00 | 0.43 | 0.43 | 70 | 1010.0 |
| 20260831211007 | 31 | 215 | 4.8 | 11.3 | 0.00 | 0.43 | 0.43 | 70 | 1009.8 |
| 20260831210503 | 31 | 122 | 1.6 | 4.8 | 0.00 | 0.43 | 0.43 | 71 | 1009.7 |
| 20260831205958 | 31 | 118 | 0.0 | 3.2 | 0.00 | 0.43 | 0.43 | 73 | 1010.0 |
| 20260831205453 | 31 | 121 | 1.6 | 3.2 | 0.00 | 0.43 | 0.43 | 73 | 1009.8 |
| 20260831204949 | 30 | 149 | 3.2 | 3.2 | 0.00 | 0.43 | 0.43 | 74 | 1010.2 |
| 20260831204448 | 31 | 135 | 1.6 | 3.2 | 0.00 | 0.43 | 0.43 | 73 | 1010.2 |
| 20260831203942 | 31 | 119 | 1.6 | 3.2 | 0.00 | 0.43 | 0.43 | 76 | 1010.1 |
| 20260831203436 | 30 | 140 | 1.6 | 4.8 | 0.00 | 0.43 | 0.43 | 74 | 1010.2 |
| 20260831202934 | 30 | 189 | 4.8 | 4.8 | 0.00 | 0.43 | 0.43 | 76 | 1010.5 |
| 20260831202430 | 29 | 103 | 3.2 | 4.8 | 0.00 | 0.43 | 0.43 | 76 | 1010.6 |
| 20260831201924 | 29 | 97 | 0.0 | 3.2 | 0.00 | 0.43 | 0.43 | 80 | 1010.6 |
| 20260831201422 | 30 | 82 | 1.6 | 1.6 | 0.00 | 0.43 | 0.43 | 78 | 1010.7 |
| 20260831200918 | 30 | 279 | 3.2 | 3.2 | 0.00 | 0.43 | 0.43 | 76 | 1010.5 |
| 20260831200413 | 31 | 260 | 3.2 | 3.2 | 0.00 | 0.43 | 0.43 | 71 | 1010.5 |
| 20260831195908 | 31 | 158 | 1.6 | 1.6 | 0.00 | 0.43 | 0.43 | 75 | 1010.2 |
| 20260831195404 | 29 | 118 | 0.0 | 0.0 | 0.00 | 0.43 | 0.43 | 76 | 1010.2 |
| 20260831194859 | 28 | 98 | 0.0 | 0.0 | 0.00 | 0.43 | 0.43 | 79 | 1010.3 |
| 20260831194354 | 28 | 99 | 0.0 | 1.6 | 0.00 | 0.43 | 0.43 | 81 | 1010.3 |
| 20260831193853 | 28 | 125 | 0.0 | 4.8 | 0.00 | 0.43 | 0.43 | 78 | 1010.2 |
| 20260831193349 | 30 | 159 | 1.6 | 4.8 | 0.00 | 0.43 | 0.43 | 72 | 1010.1 |
| 20260831192843 | 30 | 155 | 1.6 | 4.8 | 0.00 | 0.43 | 0.43 | 71 | 1010.3 |
| 20260831192338 | 30 | 150 | 1.6 | 4.8 | 0.00 | 0.43 | 0.43 | 69 | 1010.7 |
| 20260831191834 | 30 | 293 | 6.4 | 12.9 | 0.00 | 0.43 | 0.43 | 67 | 1010.7 |
| 20260831191331 | 31 | 184 | 1.6 | 14.5 | 0.00 | 0.43 | 0.43 | 64 | 1010.5 |
| 20260831190826 | 31 | 270 | 4.8 | 9.7 | 0.00 | 0.43 | 0.43 | 64 | 1010.6 |
| 20260831190326 | 31 | 170 | 3.2 | 8.0 | 0.00 | 0.43 | 0.43 | 65 | 1010.3 |
| 20260831185825 | 31 | 292 | 4.8 | 8.0 | 0.00 | 0.43 | 0.43 | 64 | 1010.4 |
| 20260831185321 | 31 | 283 | 8.0 | 11.3 | 0.00 | 0.43 | 0.43 | 65 | 1010.7 |
| 20260831184820 | 31 | 145 | 3.2 | 4.8 | 0.00 | 0.43 | 0.43 | 65 | 1010.4 |
| 20260831184316 | 31 | 196 | 8.0 | 12.9 | 0.00 | 0.43 | 0.43 | 65 | 1010.6 |
| 20260831183811 | 31 | 217 | 3.2 | 8.0 | 0.00 | 0.43 | 0.43 | 67 | 1010.4 |
| 20260831183310 | 30 | 270 | 6.4 | 12.9 | 0.00 | 0.43 | 0.43 | 66 | 1010.6 |
| 20260831182809 | 30 | 190 | 3.2 | 8.0 | 0.00 | 0.43 | 0.43 | 66 | 1010.6 |
| 20260831182305 | 30 | 108 | 0.0 | 12.9 | 0.00 | 0.43 | 0.43 | 66 | 1010.3 |
| 20260831181800 | 30 | 218 | 4.8 | 8.0 | 0.00 | 0.43 | 0.43 | 64 | 1010.7 |
| 20260831181254 | 30 | 275 | 8.0 | 11.3 | 0.00 | 0.43 | 0.43 | 67 | 1010.7 |
| 20260831180749 | 30 | 171 | 4.8 | 9.7 | 0.00 | 0.43 | 0.43 | 65 | 1010.6 |
| 20260831180244 | 30 | 152 | 6.4 | 9.7 | 0.00 | 0.43 | 0.43 | 65 | 1010.7 |
| 20260831175743 | 30 | 169 | 3.2 | 8.0 | 0.00 | 0.43 | 0.43 | 67 | 1010.6 |
| 20260831175240 | 29 | 182 | 4.8 | 11.3 | 0.00 | 0.43 | 0.43 | 69 | 1010.8 |
| 20260831174735 | 29 | 183 | 4.8 | 4.8 | 0.00 | 0.43 | 0.43 | 68 | 1011.0 |
| 20260831174231 | 28 | 210 | 1.6 | 9.7 | 0.00 | 0.43 | 0.43 | 68 | 1011.1 |
| 20260831173729 | 28 | 210 | 3.2 | 9.7 | 0.00 | 0.43 | 0.43 | 68 | 1011.0 |
| 20260831173224 | 28 | 281 | 8.0 | 11.3 | 0.00 | 0.43 | 0.43 | 68 | 1011.1 |
| 20260831172719 | 28 | 317 | 4.8 | 16.1 | 0.00 | 0.43 | 0.43 | 69 | 1011.1 |
| 20260831172214 | 28 | 219 | 3.2 | 8.0 | 0.00 | 0.43 | 0.43 | 70 | 1011.0 |
| 20260831171709 | 28 | 221 | 1.6 | 3.2 | 0.00 | 0.43 | 0.43 | 71 | 1011.1 |
| 20260831171207 | 27 | 218 | 1.6 | 11.3 | 0.00 | 0.43 | 0.43 | 72 | 1011.2 |
| 20260831170702 | 27 | 318 | 4.8 | 9.7 | 0.00 | 0.43 | 0.43 | 73 | 1011.1 |
| 20260831170159 | 27 | 235 | 3.2 | 4.8 | 0.00 | 0.43 | 0.43 | 75 | 1011.3 |
| 20260831165655 | 26 | 327 | 1.6 | 8.0 | 0.00 | 0.43 | 0.43 | 76 | 1011.4 |
| 20260831165151 | 26 | 237 | 1.6 | 11.3 | 0.00 | 0.43 | 0.43 | 78 | 1011.5 |
| 20260831164646 | 26 | 230 | 6.4 | 8.0 | 0.00 | 0.43 | 0.43 | 77 | 1011.6 |
| 20260831164143 | 26 | 232 | 3.2 | 4.8 | 0.00 | 0.43 | 0.43 | 79 | 1011.6 |
| 20260831163637 | 25 | 320 | 1.6 | 4.8 | 0.00 | 0.43 | 0.43 | 79 | 1011.7 |
| 20260831163133 | 25 | 233 | 4.8 | 8.0 | 0.00 | 0.43 | 0.43 | 81 | 1011.7 |
| 20260831162632 | 25 | 234 | 1.6 | 4.8 | 0.00 | 0.43 | 0.43 | 82 | 1012.1 |
| 20260831162130 | 25 | 316 | 1.6 | 3.2 | 0.00 | 0.43 | 0.43 | 84 | 1011.8 |
| 20260831161626 | 24 | 240 | 1.6 | 4.8 | 0.00 | 0.43 | 0.43 | 83 | 1011.7 |
| 20260831161122 | 24 | 324 | 3.2 | 4.8 | 0.00 | 0.43 | 0.43 | 85 | 1011.8 |
| 20260831160621 | 23 | 242 | 3.2 | 3.2 | 0.00 | 0.43 | 0.43 | 87 | 1012.1 |
| 20260831160116 | 23 | 236 | 4.8 | 8.0 | 0.00 | 0.43 | 0.43 | 88 | 1011.7 |
| 20260831155611 | 23 | 233 | 6.4 | 9.7 | 0.00 | 0.43 | 0.43 | 89 | 1011.9 |
| 20260831155107 | 22 | 322 | 4.8 | 8.0 | 0.00 | 0.43 | 0.43 | 91 | 1011.9 |
| 20260831154603 | 22 | 273 | 1.6 | 8.0 | 0.00 | 0.43 | 0.43 | 93 | 1012.1 |